Location: Honolulu
(21.3069°N, 157.8583°W)
Time: 07:16:31
(UTC-10:00)

A-11 Canister half - Pass Details

Date: 18 May 2026
Orbit: 1524 x 1684 km, 47.3° (Epoch: 6 June)

Event Time Altitude Azimuth Distance (km) Brightness Sun altitude
Rises 01:09:28 0° 306° (NW) 4,894 11.8 -47.8°
Reaches altitude 10° 01:12:46 10° 301° (WNW) 3,919 11.2 -47.6°
Enters shadow 01:14:00 14° 298° (WNW) 3,572 10.9 -47.6°
